Content
SEND FEEDBACK

Daily
Averages
Monthly
Summary
United States of America

CIBICUE, ARIZONA


Home > North America > United States > Arizona
Elevation: 5310 feet     Latitude: 34 03N     Longitude: 110 27W

WEATHER
 
SELECT A DAY
Number of Records: 267,033;   Date Range: 1/1/95 - 11/22/14
 
SHARE

PRINT THIS DATA

[ ← Previous Day ]
WEATHER ALMANAC - JANUARY 23, 2013
[ Next Day → ]
[ °C ]   °F
Weather ElementAverageHighLow
Temperature38 °F59 °F (1:15 pm)21.2 °F (2:35 am)
Dewpoint15.4 °F19.4 °F (8:35 am)8.6 °F (2:15 pm)
Humidity46.7 %74 % (1:35 am)14 % (2:15 pm)
Barometer30.36 in30.40 in (10:15 am)30.32 in (2:55 pm)
Wind Speed3.5 mph9.2 mph (12:55 pm)
Weather ElementAverage
Visibility10 mi
Wind DirectionSE (130.7 °)

Weather ElementTotal
Precipitation---
Heating Degree Days24.9 (Base 65)
Averaged from 68 records on January 23, 2013
WEATHER CONDITIONS BREAKOUT
WIND DIRECTION BREAKOUT
WEATHER BY HOUR - JANUARY 23, 2013
[ °C ]   °F
Local TimeTemperatureDewpointHumidityBarometerVisibilityWind DirectionWind SpeedGust SpeedPrecipitationEventsConditions
12:35 AM26.6 °F15.8 °F64 %30.37 in10.0 miCalmClear
12:55 AM26.6 °F15.8 °F64 %30.37 in10.0 miCalmClear
1:15 AM24.8 °F15.8 °F69 %30.37 in10.0 miCalmClear
1:35 AM23.0 °F15.8 °F74 %30.37 in10.0 miEast (80°)3.5 mphClear
1:55 AM24.8 °F14.0 °F64 %30.37 in10.0 miEast (100°)5.8 mphClear
2:15 AM26.6 °F14.0 °F59 %30.37 in10.0 miCalmClear
2:35 AM21.2 °F14.0 °F74 %30.37 in10.0 miWest (270°)3.5 mphClear
2:55 AM21.2 °F14.0 °F74 %30.37 in10.0 miCalmClear
3:15 AM21.2 °F14.0 °F74 %30.38 in10.0 miWSW (250°)3.5 mphClear
3:35 AM21.2 °F14.0 °F74 %30.38 in10.0 miSouth (180°)4.6 mphClear
3:55 AM23.0 °F14.0 °F68 %30.37 in10.0 miSSE (160°)5.8 mphClear
4:15 AM23.0 °F14.0 °F68 %30.36 in10.0 miSouth (170°)4.6 mphClear
4:35 AM23.0 °F14.0 °F68 %30.36 in10.0 miCalmClear
4:55 AM23.0 °F14.0 °F68 %30.36 in10.0 miSSE (150°)3.5 mphClear
5:15 AM21.2 °F14.0 °F74 %30.36 in10.0 miSouth (180°)5.8 mphClear
5:35 AM23.0 °F14.0 °F68 %30.36 in10.0 miSouth (180°)3.5 mphClear
5:55 AM24.8 °F14.0 °F64 %30.35 in10.0 miSouth (180°)4.6 mphClear
6:15 AM24.8 °F14.0 °F64 %30.36 in10.0 miSouth (190°)3.5 mphClear
6:35 AM24.8 °F14.0 °F64 %30.37 in10.0 miSouth (170°)4.6 mphClear
6:55 AM23.0 °F14.0 °F68 %30.37 in10.0 miCalmClear
7:15 AM23.0 °F14.0 °F68 %30.37 in10.0 miSSE (150°)4.6 mphClear
7:35 AM24.8 °F14.0 °F64 %30.37 in10.0 miSSE (160°)5.8 mphClear
7:55 AM26.6 °F14.0 °F59 %30.38 in10.0 miCalmClear
8:15 AM26.6 °F15.8 °F64 %30.38 in9.0 miCalmPartly Cloudy
8:35 AM32.0 °F19.4 °F60 %30.38 in8.0 miCalmPartly Cloudy
8:55 AM35.6 °F19.4 °F52 %30.38 in10.0 miCalmClear
10:15 AM53.6 °F14.0 °F21 %30.40 in10.0 miSouth (180°)5.8 mphClear
10:35 AM53.6 °F14.0 °F21 %30.40 in10.0 miSouth (190°)5.8 mphClear
10:55 AM55.4 °F14.0 °F20 %30.40 in10.0 miSSW (210°)3.5 mphClear
11:15 AM55.4 °F12.2 °F18 %30.40 in10.0 miSW (220°)3.5 mphClear
11:35 AM55.4 °F12.2 °F18 %30.40 in10.0 miSW (230°)5.8 mphClear
11:55 AM57.2 °F14.0 °F18 %30.39 in10.0 miSSW (210°)6.9 mphClear
12:15 PM57.2 °F15.8 °F20 %30.38 in10.0 miSW (220°)4.6 mphClear
12:35 PM57.2 °F15.8 °F20 %30.37 in10.0 miSSW (210°)5.8 mphClear
12:55 PM57.2 °F14.0 °F18 %30.36 in10.0 miSSW (210°)9.2 mphClear
1:15 PM59.0 °F14.0 °F17 %30.35 in10.0 miSSW (210°)5.8 mphClear
1:35 PM57.2 °F12.2 °F17 %30.34 in10.0 miSW (220°)4.6 mphClear
1:55 PM59.0 °F10.4 °F15 %30.33 in10.0 miSouth (170°)3.5 mphClear
2:15 PM59.0 °F8.6 °F14 %30.33 in10.0 miSouth (190°)6.9 mphClear
2:35 PM57.2 °F8.6 °F14 %30.33 in10.0 miSouth (190°)6.9 mphClear
2:55 PM59.0 °F10.4 °F15 %30.32 in10.0 miSSW (200°)8.1 mphClear
3:15 PM57.2 °F14.0 °F18 %30.33 in10.0 miSSW (210°)6.9 mphClear
3:35 PM57.2 °F14.0 °F18 %30.32 in10.0 miSW (230°)5.8 mphClear
3:55 PM55.4 °F14.0 °F20 %30.32 in10.0 miSSW (210°)6.9 mphClear
4:15 PM55.4 °F15.8 °F21 %30.32 in10.0 miWSW (250°)5.8 mphClear
4:35 PM51.8 °F15.8 °F24 %30.33 in10.0 miWSW (250°)4.6 mphClear
4:55 PM50.0 °F17.6 °F28 %30.33 in10.0 miSW (230°)4.6 mphClear
5:15 PM50.0 °F17.6 °F28 %30.33 in10.0 miSW (220°)3.5 mphClear
5:35 PM50.0 °F15.8 °F26 %30.33 in10.0 miCalmClear
5:55 PM48.2 °F17.6 °F30 %30.34 in10.0 miCalmClear
6:15 PM44.6 °F17.6 °F34 %30.35 in10.0 miSouth (190°)3.5 mphClear
6:35 PM41.0 °F17.6 °F39 %30.35 in10.0 miSouth (180°)4.6 mphClear
6:55 PM37.4 °F17.6 °F45 %30.35 in10.0 miSouth (180°)4.6 mphClear
7:15 PM37.4 °F17.6 °F45 %30.35 in10.0 miSSE (160°)4.6 mphClear
7:35 PM35.6 °F17.6 °F48 %30.35 in10.0 miSSE (160°)5.8 mphClear
7:55 PM33.8 °F19.4 °F56 %30.34 in10.0 miSSE (150°)6.9 mphClear
8:15 PM32.0 °F19.4 °F60 %30.34 in10.0 miSE (140°)5.8 mphClear
8:35 PM33.8 °F19.4 °F56 %30.34 in10.0 miSSE (160°)3.5 mphClear
8:55 PM32.0 °F19.4 °F60 %30.34 in10.0 miCalmClear
9:15 PM32.0 °F19.4 °F60 %30.35 in10.0 miCalmClear
9:35 PM32.0 °F19.4 °F60 %30.35 in10.0 miCalmClear
9:55 PM32.0 °F19.4 °F60 %30.36 in10.0 miCalmClear
10:15 PM32.0 °F19.4 °F60 %30.36 in10.0 miCalmClear
10:35 PM32.0 °F19.4 °F60 %30.36 in10.0 miCalmClear
10:55 PM32.0 °F17.6 °F55 %30.36 in10.0 miSSE (150°)3.5 mphClear
11:15 PM32.0 °F17.6 °F55 %30.36 in10.0 miSouth (190°)3.5 mphClear
11:35 PM32.0 °F17.6 °F55 %30.35 in10.0 miCalmClear
11:55 PM32.0 °F17.6 °F55 %30.35 in10.0 miCalmClear
Hourly data recorded from KSOW, located miles away from Cibicue, Arizona







STORIES FROM OUR PARTNERS